Location: Hermaringen
(48.5952°N, 10.2585°E)
Time: 07:26:25
(UTC+00:00)

Cosmos 2058 - Pass Details

Date: 18 November 2025
Orbit: 529 x 541 km, 82.5° (Epoch: 06 December)

Event Time Altitude Azimuth Distance (km) Brightness Sun altitude
Rises 17:27:42 0° 347° (NNW) 2,706 6.4 -18.2°
Reaches altitude 10° 17:29:53 10° 344° (NNW) 1,811 5.5 -18.6°
Maximum altitude 17:33:48 62° 264° (W) 614 3.3 -19.2°
Drops below altitude 10° 17:37:43 10° 184° (S) 1,801 5.6 -19.9°
Sets 17:39:53 0° 181° (S) 2,689 6.4 -20.2°
